Location: El Corozo
(10.5833°N, 66.9667°W)
Time: 12:03:04
(UTC+00:00)

Sakura Rocket - Pass Details

Date: 23 May 2024
Orbit: 475 x 1714 km, 28.7° (Epoch: 20 June)

Event Time Altitude Azimuth Distance (km) Brightness Sun altitude
Exits shadow 08:43:14 25° 206° (SSW) 1,753 4.9 -19.2°
Maximum altitude 08:46:13 41° 153° (SSE) 1,156 4.4 -18.5°
Drops below altitude 10° 08:50:47 10° 83° (E) 2,079 6.9 -17.5°
Sets 08:52:56 0° 75° (ENE) 2,856 8.1 -17.1°
